Tracking 30918 objects as of 2-Jul-2025
HD Live streaming from Space Station
objects crossing your sky now

STARLINK-30108

Track STARLINK-30108 now!
10-day predictions
STARLINK-30108 is classified as:


NORAD ID: 56299
Int'l Code: 2023-056P
Perigee: 565.7 km
Apogee: 566.7 km
Inclination: 43.0 °
Period: 95.8 minutes
Semi major axis: 6937 km
RCS: Unknown
Launch date: April 19, 2023
Source: United States (US)
Launch site: AIR FORCE EASTERN TEST RANGE (AFETR)
Your satellite tracking list
Your tracking list is empty




NASA's NSSDC Master Catalog

Two Line Element Set (TLE):
1 56299U 23056P   25183.18309195 -.00000132  00000-0  52680-5 0  9995
2 56299  43.0035 119.0448 0000744 269.4238  90.6519 15.02532070121889
Source of the keplerian elements: AFSPC